YAHSAT 1B

Last updated on May 23, 2019, 3:05 a.m. UTC

1 38245U 12016A   19142.83206517  .00000118  00000-0  00000+0 0  9990
2 38245   0.0128 316.0826 0002566 122.4561 148.7579  1.00272914 26028
UTC
Height (km)
Latitude
Longitude
Inclination
Orbital Period
UTC large
Height (km)
Speed (km/s)
/
Latitude / Longitude
Inclination (degrees)
Orbital Period (minutes)
Azimuth
Elevation
Range (km)
Doppler Factor
iOS Compass Heading
iOS Angle

Next 30 passes for location: Hong Kong

Rise time Rise Azimuth (degrees) Set time Set Azimuth (degrees) Duration Max altitude (degrees)

No matching passes for this satellites